EW4492 Weather Reports


time (UTC)temp
F
wind
direction
speed
knots
gust
knots
rain 1hr
in
rain 24hr
in
rain mn
in
humidity
%
barometer
mb
20260507182331 65 252 7.0 13.9 0.00 0.00 0.00 51 1016.2
20260507181354 64 247 6.1 13.0 0.00 0.00 0.00 52 1016.3
20260507180342 64 269 8.7 13.0 0.00 0.00 0.00 52 1016.3
20260507175337 63 257 8.7 14.8 0.00 0.00 0.00 52 1016.4
20260507174416 63 265 6.1 11.3 0.00 0.00 0.00 57 1016.5
20260507173345 62 263 8.7 14.8 0.00 0.00 0.00 55 1016.5
20260507172348 62 254 7.0 13.0 0.00 0.00 0.00 57 1016.7
20260507171330 61 273 8.7 14.8 0.00 0.00 0.00 56 1016.6
20260507170327 61 241 8.7 16.5 0.00 0.00 0.00 57 1016.7
20260507165350 61 269 11.3 14.8 0.00 0.00 0.00 58 1016.7
20260507164357 60 256 10.4 16.5 0.00 0.00 0.00 60 1016.6
20260507163401 60 236 11.3 15.6 0.00 0.00 0.00 62 1016.5
20260507162333 59 250 11.3 15.6 0.00 0.00 0.00 64 1016.3
20260507161355 59 259 11.3 14.8 0.00 0.00 0.00 66 1016.5
20260507160407 58 265 11.3 16.5 0.00 0.00 0.00 67 1016.6
20260507155330 58 263 10.4 14.8 0.00 0.00 0.00 68 1016.8
20260507154352 58 248 10.4 15.6 0.00 0.00 0.00 69 1016.7
20260507153334 57 250 13.0 15.6 0.00 0.00 0.00 69 1016.5
20260507152346 57 249 10.4 17.4 0.00 0.00 0.00 71 1016.6
20260507151400 56 254 12.2 18.2 0.00 0.00 0.00 72 1016.5
20260507150330 56 257 8.7 16.5 0.00 0.00 0.00 74 1016.6
20260507145333 55 248 12.2 18.2 0.00 0.00 0.00 74 1016.7
20260507144356 55 254 10.4 15.6 0.00 0.00 0.00 75 1016.6
20260507143339 53 250 8.7 13.9 0.00 0.00 0.00 78 1016.4
20260507142333 53 236 7.8 12.2 0.00 0.00 0.00 78 1016.2
20260507141327 53 264 7.8 13.9 0.00 0.00 0.00 78 1016.3
20260507140333 52 242 7.0 13.9 0.00 0.00 0.00 78 1016.3
20260507135402 52 242 6.1 11.3 0.00 0.00 0.00 79 1016.2
20260507134351 52 243 5.2 9.6 0.00 0.00 0.00 79 1016.1
20260507133328 52 252 7.0 11.3 0.00 0.00 0.00 79 1016.0
20260507132357 52 267 4.3 8.7 0.00 0.00 0.00 80 1016.0
20260507131330 51 254 5.2 9.6 0.00 0.00 0.00 80 1015.9
20260507130419 50 225 6.1 8.7 0.00 0.00 0.00 79 1015.8
20260507125338 48 256 2.6 5.2 0.00 0.00 0.00 79 1016.0
20260507124344 48 246 0.0 1.7 0.00 0.00 0.00 80 1015.9
20260507123342 48 246 0.0 2.6 0.00 0.00 0.00 80 1015.9
20260507122354 48 247 2.6 4.3 0.00 0.00 0.00 80 1016.0
20260507121329 48 245 1.7 4.3 0.00 0.00 0.00 80 1016.0
20260507120340 47 239 2.6 4.3 0.00 0.00 0.00 80 1015.9
20260507115333 48 188 0.9 1.7 0.00 0.00 0.00 80 1015.9
20260507114353 49 186 0.9 2.6 0.00 0.00 0.00 80 1015.9
20260507113332 51 220 0.0 1.7 0.00 0.00 0.00 79 1015.9
20260507112340 52 289 0.0 0.0 0.00 0.00 0.00 78 1015.9
20260507111330 53 289 0.0 2.6 0.00 0.00 0.00 78 1015.9
20260507110333 53 287 0.0 4.3 0.00 0.00 0.00 78 1015.9
20260507105404 53 287 3.5 7.0 0.00 0.00 0.00 78 1015.6
20260507104343 53 284 6.1 7.8 0.00 0.00 0.00 79 1015.6
20260507103403 51 266 1.7 4.3 0.00 0.00 0.00 79 1015.6
20260507102401 52 272 0.0 1.7 0.00 0.00 0.00 79 1015.5
20260507101341 52 272 3.5 4.3 0.00 0.00 0.00 78 1015.7
20260507100329 52 245 0.0 2.6 0.00 0.00 0.00 78 1015.7
20260507095334 53 242 1.7 4.3 0.00 0.00 0.00 77 1015.7
20260507094355 54 253 3.5 7.0 0.00 0.00 0.00 76 1015.6
20260507093333 54 261 2.6 7.0 0.00 0.00 0.00 74 1015.8
20260507092404 55 261 5.2 8.7 0.00 0.00 0.00 74 1015.8
20260507091332 55 246 2.6 6.1 0.00 0.00 0.00 73 1015.8
20260507090358 55 259 4.3 8.7 0.00 0.00 0.00 73 1015.7
20260507085338 55 261 5.2 7.8 0.00 0.00 0.00 73 1015.5
20260507084336 56 261 1.7 6.1 0.00 0.00 0.00 71 1015.7
20260507083352 57 261 3.5 11.3 0.00 0.00 0.00 69 1015.6
20260507082359 57 277 7.8 13.9 0.00 0.00 0.00 68 1015.5
20260507081336 57 269 7.0 11.3 0.00 0.00 0.00 67 1015.4
20260507080328 58 267 8.7 13.9 0.00 0.00 0.00 66 1015.2
20260507075343 58 272 8.7 13.9 0.00 0.00 0.00 65 1015.2
20260507074342 57 276 8.7 11.3 0.00 0.00 0.00 66 1015.1
20260507073348 57 269 7.8 12.2 0.00 0.00 0.00 66 1015.1
20260507072348 57 270 7.0 9.6 0.00 0.00 0.00 67 1015.3
20260507071328 57 259 4.3 8.7 0.00 0.00 0.00 66 1015.2
20260507070326 58 275 7.0 11.3 0.00 0.00 0.00 65 1015.1
20260507065357 58 257 7.0 12.2 0.00 0.00 0.00 64 1015.0
20260507064344 57 268 7.0 10.4 0.00 0.00 0.00 65 1015.2
20260507063350 57 264 7.0 9.6 0.00 0.00 0.00 65 1015.0
20260507062347 57 257 4.3 7.8 0.00 0.00 0.00 65 1015.0
20260507061347 58 252 5.2 11.3 0.00 0.00 0.00 64 1014.9
20260507060406 58 254 3.5 7.8 0.00 0.00 0.00 64 1014.9
20260507055332 59 258 5.2 9.6 0.00 0.00 0.00 62 1014.9
20260507054340 59 272 2.6 7.8 0.00 0.00 0.00 62 1014.7
20260507053330 60 245 6.1 10.4 0.00 0.00 0.00 60 1014.8
20260507052333 61 253 7.8 12.2 0.00 0.00 0.00 58 1014.8
20260507051326 61 265 9.6 13.0 0.00 0.00 0.00 58 1014.7
20260507050337 61 268 7.8 11.3 0.00 0.00 0.00 58 1014.8
20260507045345 61 257 5.2 10.4 0.00 0.00 0.00 57 1014.8
20260507044327 62 264 6.1 12.2 0.00 0.00 0.00 55 1014.9
20260507043354 63 265 9.6 15.6 0.00 0.00 0.00 53 1014.7
20260507042336 63 267 11.3 14.8 0.00 0.00 0.00 53 1014.6
20260507041348 63 270 6.1 13.0 0.00 0.00 0.00 54 1014.6
20260507040346 64 250 7.0 14.8 0.00 0.00 0.00 53 1014.6
20260507035401 65 258 11.3 15.6 0.00 0.00 0.00 51 1014.3
20260507034330 65 248 9.6 15.6 0.00 0.00 0.00 51 1014.1
20260507033338 66 251 8.7 15.6 0.00 0.00 0.00 51 1014.1
20260507032336 66 257 8.7 14.8 0.00 0.00 0.00 51 1013.9
20260507031401 67 245 9.6 15.6 0.00 0.00 0.00 51 1013.8
20260507030325 67 262 9.6 16.5 0.00 0.00 0.00 51 1013.8
20260507025353 68 252 10.4 15.6 0.00 0.00 0.00 50 1013.7
20260507024345 68 261 11.3 18.2 0.00 0.00 0.00 50 1013.4
20260507023338 69 250 8.7 15.6 0.00 0.00 0.00 50 1013.4
20260507022349 69 250 8.7 14.8 0.00 0.00 0.00 49 1013.4
20260507021357 69 242 8.7 13.0 0.00 0.00 0.00 48 1013.3
20260507020335 70 242 7.0 12.2 0.00 0.00 0.00 47 1013.3
20260507015331 71 250 10.4 20.9 0.00 0.00 0.00 46 1013.3
20260507014406 71 240 12.2 17.4 0.00 0.00 0.00 46 1013.1
20260507013339 72 259 8.7 14.8 0.00 0.00 0.00 48 1013.1
20260507012341 72 258 8.7 14.8 0.00 0.00 0.00 47 1013.1
20260507011335 73 271 13.0 19.1 0.00 0.00 0.00 45 1013.0
20260507010329 73 271 9.6 13.9 0.00 0.00 0.00 47 1012.9
20260507005340 73 255 6.1 13.9 0.00 0.00 0.00 48 1013.0
20260507004327 74 261 11.3 16.5 0.00 0.00 0.00 45 1013.0
20260507003343 74 280 9.6 18.2 0.00 0.00 0.00 46 1012.9
20260507002337 74 248 12.2 19.1 0.00 0.00 0.00 46 1012.8
20260507001351 75 254 9.6 15.6 0.00 0.00 0.00 48 1012.7
20260507000333 75 271 9.6 15.6 0.00 0.00 0.00 49 1012.6
20260506235400 74 272 7.8 13.9 0.00 0.00 0.00 50 1012.7
20260506234357 75 273 11.3 16.5 0.00 0.00 0.00 46 1012.7
20260506233333 75 266 11.3 14.8 0.00 0.00 0.00 47 1012.7
20260506232348 75 284 8.7 13.0 0.00 0.00 0.00 49 1012.8
20260506231338 75 264 10.4 16.5 0.00 0.00 0.00 47 1012.8
20260506230330 75 279 8.7 13.9 0.00 0.00 0.00 47 1012.8
20260506225340 76 267 8.7 16.5 0.00 0.00 0.00 46 1012.8
20260506224347 77 257 11.3 16.5 0.00 0.00 0.00 41 1012.9
20260506223337 77 266 12.2 16.5 0.00 0.00 0.00 43 1013.0
20260506222342 77 275 11.3 17.4 0.00 0.00 0.00 44 1013.2
20260506221333 77 277 11.3 16.5 0.00 0.00 0.00 43 1013.1
20260506220337 78 271 11.3 17.4 0.00 0.00 0.00 44 1013.1
20260506215342 78 261 10.4 16.5 0.00 0.00 0.00 45 1013.2
20260506214414 77 263 10.4 15.6 0.00 0.00 0.00 46 1013.4
20260506213416 78 267 10.4 16.5 0.00 0.00 0.00 45 1013.6
20260506212337 78 266 12.2 15.6 0.00 0.00 0.00 42 1013.8
20260506211348 77 274 11.3 17.4 0.00 0.00 0.00 45 1013.9
20260506210356 77 288 11.3 16.5 0.00 0.00 0.00 44 1013.8
20260506205358 78 269 9.6 20.0 0.00 0.00 0.00 42 1013.9
20260506204331 78 290 10.4 17.4 0.00 0.00 0.00 42 1013.8
20260506203356 79 275 10.4 16.5 0.00 0.00 0.00 40 1013.7
20260506202336 78 275 12.2 16.5 0.00 0.00 0.00 42 1013.7
20260506201355 79 279 12.2 16.5 0.00 0.00 0.00 41 1013.7
20260506200333 78 277 11.3 17.4 0.00 0.00 0.00 38 1013.7
20260506195336 78 277 8.7 16.5 0.00 0.00 0.00 39 1013.7
20260506194352 77 250 8.7 13.9 0.00 0.00 0.00 43 1013.7
20260506193335 76 260 9.6 14.8 0.00 0.00 0.00 46 1013.8
20260506192335 75 269 10.4 15.6 0.00 0.00 0.00 49 1014.0
20260506191334 74 248 8.7 14.8 0.00 0.00 0.00 53 1014.1
20260506190333 73 246 9.6 17.4 0.00 0.00 0.00 54 1014.3
20260506185347 73 247 9.6 18.2 0.00 0.00 0.00 54 1014.4
20260506184335 71 249 10.4 16.5 0.00 0.00 0.00 55 1014.5
20260506183336 71 250 12.2 17.4 0.00 0.00 0.00 55 1014.6